This is the latest recevied weather packets stored in our database for station/object AI5BL. If no packets are shown the sender has not sent any weather packets the latest 10 day(s).
| Time | Temp. | Humidity | Pressure | Rain* | Wind** | Luminosity | Snow |
|---|---|---|---|---|---|---|---|
| 1788306077 | 31.11° C | 63% | 1017.6 hPa | 0 mm | - | 14 W/m² | - |
| 1788305772 | 31.11° C | 61% | 1017.6 hPa | 0 mm | - | 14 W/m² | - |
| 1788305468 | 31.67° C | 61% | 1017.6 hPa | 0 mm | - | 14 W/m² | - |
| 1788305163 | 31.67° C | 62% | 1017.6 hPa | 0 mm | - | 16 W/m² | - |
| 1788304863 | 32.78° C | 59% | 1017.7 hPa | 0 mm | - | 18 W/m² | - |
| 1788304560 | 32.78° C | 58% | 1017.6 hPa | 0 mm | - | 19 W/m² | - |
| 1788304256 | 32.78° C | 55% | 1017.8 hPa | 0 mm | - | 20 W/m² | - |
| 1788303951 | 32.22° C | 57% | 1017.7 hPa | 0 mm | - | 21 W/m² | - |
| 1788303646 | 32.78° C | 59% | 1017.7 hPa | 0 mm | - | 24 W/m² | - |
| 1788303341 | 32.78° C | 60% | 1017.7 hPa | 0 mm | - | 29 W/m² | - |
| 1788303040 | 32.78° C | 55% | 1017.8 hPa | 0 mm | - | 38 W/m² | - |
| 1788302737 | 32.78° C | 61% | 1017.6 hPa | 0 mm | - | 57 W/m² | - |
| 1788302428 | 33.33° C | 59% | 1017.3 hPa | 0 mm | - | 53 W/m² | - |
| 1788302128 | 32.78° C | 53% | 1017.6 hPa | 0 mm | - | 51 W/m² | - |
| 1788301823 | 33.33° C | 61% | 1017.5 hPa | 0 mm | - | 49 W/m² | - |
| 1788301519 | 33.33° C | 51% | 1017.5 hPa | 0 mm | - | 70 W/m² | - |
| 1788301215 | 34.44° C | 50% | 1017.4 hPa | 0 mm | - | 38 W/m² | - |
| 1788300910 | 34.44° C | 48% | 1017.6 hPa | 0 mm | - | 36 W/m² | - |
| 1788300606 | 34.44° C | 48% | 1017.5 hPa | 0 mm | - | 41 W/m² | - |
| 1788300305 | 34.44° C | 48% | 1017.5 hPa | 0 mm | - | 41 W/m² | - |
| 1788300004 | 33.89° C | 52% | 1017.5 hPa | 0 mm | - | 42 W/m² | - |
| 1788299702 | 33.89° C | 51% | 1017.7 hPa | 0 mm | - | 48 W/m² | - |
| 1788299402 | 34.44° C | 50% | 1017.7 hPa | 0 mm | - | 47 W/m² | - |
| 1788299101 | 34.44° C | 51% | 1017.7 hPa | 0 mm | - | 47 W/m² | - |
| 1788298795 | 34.44° C | 49% | 1017.7 hPa | 0 mm | - | 50 W/m² | - |
* Rain latest hour (hover to see other rain measurements)
** Current wind speed in m/s (hover to see current wind gust speed)